Date,TemperatureHighF,TemperatureAvgF,TemperatureLowF,DewpointHighF,DewpointAvgF,DewpointLowF,HumidityHigh,HumidityAvg,HumidityLow,PressureMaxIn,PressureMinIn,WindSpeedMaxMPH,WindSpeedAvgMPH,GustSpeedMaxMPH,PrecipitationSumIn
2013-1-1,24.0,16.4,8.6,15.5,11.8,5.4,90,82,69,30.40,30.20,11,2,12,0.00
2013-1-2,36.2,26.3,13.7,29.6,21.2,9.2,85,81,75,30.29,30.14,13,2,13,0.00
2013-1-3,32.4,26.0,16.4,27.5,20.6,13.4,89,80,67,30.46,30.29,13,2,14,0.00
2013-1-4,33.0,21.9,14.3,21.8,15.9,11.1,90,78,59,30.38,30.20,14,3,14,0.00
2013-1-5,34.4,25.9,15.7,25.6,20.3,12.5,90,80,65,30.29,30.07,21,4,23,0.00
2013-1-6,37.1,25.4,13.9,26.1,19.2,10.7,92,78,60,30.39,30.17,15,2,17,0.00
2013-1-7,40.4,33.6,21.9,30.2,26.4,19.9,92,75,64,30.17,29.97,22,4,22,0.00
2013-1-8,40.8,29.5,17.0,31.8,24.7,14.8,93,83,68,30.19,29.89,22,3,22,0.00
2013-1-9,47.9,35.2,24.5,34.3,28.8,21.6,91,78,57,30.47,30.19,14,0,14,0.00
2013-1-10,39.9,35.2,26.5,37.6,32.9,24.8,97,92,64,30.35,29.69,17,1,17,0.22
2013-1-11,52.2,42.4,27.4,45.9,39.1,18.5,98,89,70,29.80,29.37,28,6,30,0.00
2013-1-12,27.4,19.9,13.3,20.5,10.2,6.3,75,66,56,30.22,29.80,23,7,23,0.00
2013-1-13,21.6,14.3,8.8,9.5,6.6,3.9,84,71,55,30.43,30.21,16,3,16,0.00
2013-1-14,29.6,17.2,5.9,14.6,9.6,2.6,88,73,50,30.56,30.43,14,1,14,0.00
2013-1-15,35.6,23.2,11.2,22.5,16.1,8.2,90,75,55,30.43,30.10,19,3,19,0.00
2013-1-16,52.6,37.4,23.4,34.7,28.0,17.6,82,70,48,30.27,29.99,18,4,19,0.00
2013-1-17,46.8,33.2,23.4,36.3,28.8,21.6,96,85,61,30.49,30.27,9,0,9,0.00
2013-1-18,52.9,40.4,30.8,35.0,30.9,27.8,91,70,48,30.31,29.91,26,6,26,0.00
2013-1-19,54.4,41.4,26.3,33.0,28.3,11.2,86,62,41,30.34,29.89,24,5,26,0.00
2013-1-20,26.2,20.2,15.9,16.7,10.7,8.2,80,67,53,30.48,30.34,13,2,13,0.00
2013-1-21,18.6,14.2,11.6,13.6,6.5,-4.2,83,72,46,30.54,30.43,17,3,17,0.00
2013-1-22,24.7,17.4,12.4,14.7,10.6,8.0,83,74,63,30.47,30.30,14,2,14,0.00
2013-1-23,33.2,20.9,11.8,21.0,13.7,6.6,89,74,57,30.55,30.23,19,4,21,0.00
2013-1-24,21.9,13.5,4.6,8.6,2.0,-3.3,74,60,49,30.60,30.24,18,4,20,0.00
2013-1-25,52.7,32.2,16.3,27.8,19.3,8.0,79,61,33,30.28,30.19,11,1,12,0.00
2013-1-26,58.5,38.5,24.0,31.0,24.4,20.6,89,62,27,30.27,29.99,26,4,26,0.00
2013-1-27,44.6,40.5,36.5,43.8,38.2,27.3,97,92,57,29.99,29.66,17,2,17,0.16
2013-1-28,45.5,39.8,34.3,45.0,39.1,33.5,100,97,97,29.86,29.57,9,0,10,0.01
2013-1-29,40.1,34.6,31.0,39.6,32.5,29.9,98,92,86,29.71,29.60,25,6,25,0.01
2013-1-30,30.9,21.3,9.7,30.0,18.4,6.8,97,89,77,30.01,29.68,30,8,30,0.00
2013-1-31,17.9,11.0,0.6,14.1,3.5,-5.3,90,72,58,30.53,29.99,28,6,28,0.00
2013-2-1,30.2,16.6,1.3,21.3,10.0,-3.4,92,75,64,30.52,30.14,24,6,24,0.00
2013-2-2,47.6,35.1,24.2,39.2,28.6,20.3,91,78,56,30.24,30.08,24,2,24,0.00
2013-2-3,45.1,36.1,25.3,32.2,27.7,21.8,89,72,50,30.26,29.81,24,3,24,0.00
2013-2-4,38.7,29.4,25.3,30.7,24.9,21.8,92,83,73,30.05,29.80,19,3,21,0.00
2013-2-5,52.9,39.1,27.4,34.2,28.6,25.1,92,69,38,30.08,29.89,20,2,21,0.00
2013-2-6,59.5,44.5,34.4,43.5,35.6,28.4,89,72,52,30.08,29.81,23,3,23,0.00
2013-2-7,42.4,35.9,30.1,39.1,31.1,25.8,91,83,77,30.27,29.88,22,6,22,0.00
2013-2-8,39.8,32.2,27.4,31.4,27.1,23.6,91,82,71,30.37,30.15,16,3,17,0.00
2013-2-9,53.3,40.9,30.4,41.4,34.5,27.8,91,79,61,30.16,29.63,28,7,28,0.00
2013-2-10,45.4,38.6,33.5,43.2,33.4,24.1,96,82,66,29.89,29.25,35,10,37,0.06
2013-2-11,40.2,33.2,25.6,26.4,23.7,21.6,86,68,53,30.19,29.89,30,6,33,0.00
2013-2-12,49.2,33.8,19.3,26.3,21.6,16.3,92,65,33,30.19,29.94,22,3,22,0.00
2013-2-13,54.2,39.4,25.4,31.7,27.0,21.6,92,64,34,29.95,29.75,21,3,21,0.00
2013-2-14,45.2,38.3,22.9,32.5,27.4,15.4,86,66,40,30.32,29.83,30,8,30,0.00
2013-2-15,34.9,25.5,17.1,26.7,18.5,12.6,91,76,48,30.41,30.31,22,4,22,0.00
2013-2-16,38.7,26.7,12.9,26.5,19.7,10.0,89,76,53,30.40,30.03,19,3,20,0.00
2013-2-17,62.1,41.3,24.5,35.4,29.2,21.2,89,66,33,30.03,29.54,22,3,22,0.00
2013-2-18,43.8,34.3,25.0,33.6,25.9,17.3,91,71,53,30.11,29.53,29,7,30,0.01
2013-2-19,29.2,20.8,13.9,18.4,6.9,0.3,78,57,30,30.43,30.12,24,6,25,0.00
2013-2-20,25.6,17.3,8.8,13.3,6.8,2.6,78,63,49,30.45,30.25,15,3,15,0.00
2013-2-21,24.7,22.8,21.5,21.3,16.0,9.4,92,77,52,30.29,29.89,21,5,23,0.00
2013-2-22,22.9,18.8,8.8,20.2,15.0,5.8,92,85,76,30.11,29.90,17,4,17,0.01
2013-2-23,39.3,21.6,3.7,29.5,16.6,0.4,92,81,65,30.09,29.89,16,3,16,0.03
2013-2-24,45.0,33.2,24.1,31.6,26.6,20.4,87,77,52,30.09,29.93,12,1,12,0.00
2013-2-25,35.5,31.1,28.1,29.3,26.7,24.3,90,84,74,30.11,29.92,18,4,18,0.00
2013-2-26,31.6,28.3,24.9,27.6,25.5,23.1,100,89,80,29.98,29.84,18,6,19,0.00
2013-2-27,41.6,32.5,25.8,28.7,25.5,22.0,91,76,54,30.15,29.96,30,9,30,0.01
2013-2-28,34.0,30.4,27.3,27.5,24.6,21.6,84,79,73,30.28,30.15,23,6,23,0.00
2013-3-1,33.2,27.3,21.8,21.9,19.5,16.5,81,72,58,30.41,30.27,20,6,20,0.00
2013-3-2,43.9,28.9,12.7,26.1,19.6,9.9,93,70,44,30.42,30.11,12,1,12,0.00
2013-3-3,47.7,36.6,27.8,34.4,29.1,24.2,87,75,59,30.11,29.69,18,4,20,0.00
2013-3-4,40.6,35.6,30.2,33.2,29.9,21.6,94,80,65,30.08,29.63,19,4,20,0.01
2013-3-5,34.2,29.1,23.1,21.6,18.9,16.1,80,66,54,30.45,30.08,36,10,36,0.01
2013-3-6,41.6,29.5,20.0,24.4,20.1,15.9,85,69,44,30.48,30.25,15,3,15,0.00
2013-3-7,57.6,39.1,25.3,31.0,26.1,20.4,82,62,33,30.28,30.07,22,6,24,0.00
2013-3-8,62.2,45.1,30.9,42.6,34.9,26.6,92,69,46,30.17,29.88,25,5,26,0.13
2013-3-9,60.0,49.5,35.0,54.5,46.0,32.6,95,88,77,29.88,29.50,27,4,30,0.08
2013-3-10,35.0,27.1,22.3,32.6,25.5,20.6,96,93,90,30.03,29.70,32,11,32,0.08
2013-3-11,33.7,24.6,15.3,26.7,18.9,11.4,93,79,56,30.07,29.95,23,5,23,0.02
2013-3-12,36.9,31.8,25.6,26.1,23.3,19.8,85,71,60,30.38,30.07,28,6,28,0.02
2013-3-13,45.2,29.5,15.1,28.0,21.0,12.4,92,72,48,30.50,30.26,12,1,14,0.00
2013-3-14,62.2,45.4,32.8,43.0,34.3,23.9,86,66,47,30.26,30.06,13,1,13,0.00
2013-3-15,66.5,50.0,34.6,46.4,40.3,32.5,94,72,44,30.06,29.69,16,2,16,0.00
2013-3-16,44.2,33.0,28.1,40.8,27.9,23.7,91,82,72,30.20,29.83,22,6,25,0.00
2013-3-17,48.1,35.6,26.6,33.4,27.5,22.1,92,73,55,30.17,29.74,18,4,18,0.02
2013-3-18,42.2,36.5,29.6,35.8,23.8,15.0,94,63,35,30.10,29.71,31,8,31,0.03
2013-3-19,51.2,36.6,27.0,33.6,22.2,17.4,83,58,32,30.36,30.08,22,3,22,0.00
2013-3-20,39.5,27.9,18.4,21.3,13.4,7.1,77,56,34,30.45,30.12,21,8,21,0.00
2013-3-21,33.9,28.6,22.4,23.0,17.5,12.4,88,64,46,30.13,29.93,16,3,18,0.02
2013-3-22,35.0,31.9,28.4,28.2,22.9,15.2,87,70,49,30.06,29.99,13,1,13,0.01
2013-3-23,37.4,32.6,29.7,31.2,26.3,20.8,94,78,58,30.13,30.03,21,4,21,0.03
2013-3-24,30.7,27.5,24.7,28.2,21.0,16.3,94,77,60,30.16,30.09,27,10,28,0.00
2013-3-25,31.2,28.1,25.6,24.3,21.3,19.6,88,76,64,30.40,30.16,26,9,28,0.00
2013-3-26,43.7,32.3,20.5,25.3,20.1,15.5,81,62,41,30.43,30.25,11,2,11,0.00
2013-3-27,54.2,40.4,29.1,33.3,27.7,22.5,80,62,42,30.28,30.16,21,3,21,0.00
2013-3-28,62.4,45.1,25.5,36.1,30.8,23.1,93,61,30,30.25,30.12,12,1,13,0.00
2013-3-29,70.9,52.8,30.7,42.4,34.3,27.6,95,55,26,30.21,30.00,18,3,19,0.00
2013-3-30,67.0,57.6,51.1,54.5,46.5,35.5,94,70,33,30.07,29.87,34,3,34,0.62
2013-3-31,59.6,50.5,34.2,43.9,35.0,27.0,93,59,31,30.13,29.91,31,5,31,0.05
2013-4-1,41.7,33.2,25.3,32.4,20.4,13.9,94,62,37,30.36,30.13,21,2,21,0.01
2013-4-2,53.4,37.9,20.3,28.2,23.3,17.0,89,59,35,30.36,30.25,8,1,9,0.00
2013-4-3,54.9,42.6,31.1,29.0,26.2,22.9,73,54,34,30.35,30.22,19,2,19,0.00
2013-4-4,63.8,47.5,29.3,39.7,33.5,25.6,88,61,40,30.24,30.04,19,3,19,0.00
2013-4-5,71.7,54.4,37.5,41.2,35.6,30.0,79,52,27,30.14,29.67,27,5,28,0.00
2013-4-6,71.5,60.5,51.2,47.0,42.4,38.5,74,53,32,29.75,29.56,30,6,30,0.00
2013-4-7,75.0,57.5,41.1,51.6,42.4,36.8,93,62,28,29.80,29.56,23,2,23,0.45
2013-4-8,69.0,58.3,46.8,61.8,55.0,45.4,97,89,75,29.65,29.59,14,2,14,0.01
2013-4-9,64.4,46.9,33.9,60.3,44.7,32.2,95,92,86,29.98,29.48,27,8,27,0.70
2013-4-10,35.8,34.0,31.9,34.3,32.5,30.6,96,94,90,30.01,29.85,22,7,23,0.16
2013-4-11,36.5,32.9,29.9,32.5,29.0,26.8,95,86,76,29.86,29.71,23,7,23,0.05
2013-4-12,46.5,37.3,32.1,32.3,29.2,26.4,85,73,55,30.05,29.80,27,7,27,0.00
2013-4-13,59.2,44.1,27.2,42.7,34.8,24.7,91,72,51,30.06,29.59,22,4,24,0.07
2013-4-14,65.7,54.6,44.8,51.9,41.6,28.8,85,64,34,29.67,29.26,31,6,32,0.00
2013-4-15,47.5,41.3,36.4,31.9,27.3,21.6,75,57,47,30.09,29.67,17,4,17,0.00
2013-4-16,50.6,43.3,36.4,34.7,30.5,27.8,77,62,43,30.25,30.07,20,4,20,0.00
2013-4-17,46.7,41.4,36.7,40.8,37.9,34.3,97,88,62,30.14,29.71,32,6,32,0.78
2013-4-18,37.4,34.4,31.2,34.9,30.4,27.2,94,85,72,29.98,29.74,36,12,36,0.20
2013-4-19,47.8,38.0,29.6,27.6,24.6,21.9,80,60,40,30.13,29.94,25,7,27,0.00
2013-4-20,49.4,38.6,24.4,31.8,26.4,21.2,90,64,42,30.27,30.11,21,4,21,0.00
2013-4-21,69.3,55.7,41.9,50.4,40.6,31.7,94,60,36,30.13,29.94,32,6,32,0.24
2013-4-22,53.5,44.2,33.6,51.3,42.1,29.6,96,92,85,30.25,29.91,30,4,30,1.03
2013-4-23,39.1,33.9,29.5,29.6,25.2,20.1,89,71,54,30.32,30.19,28,8,28,0.00
2013-4-24,60.7,41.5,24.4,36.9,27.2,20.9,92,62,25,30.26,30.06,25,5,29,0.00
2013-4-25,70.3,52.3,31.4,40.9,34.3,27.5,87,56,27,30.27,29.99,29,5,29,0.00
2013-4-26,68.7,58.1,47.6,52.0,45.1,38.2,90,63,46,30.16,29.99,24,4,24,0.00
2013-4-27,73.3,55.5,41.4,52.9,47.3,39.8,96,77,41,30.16,29.91,13,1,13,0.00
2013-4-28,82.7,64.7,47.8,55.9,51.1,45.8,94,66,34,29.92,29.63,25,4,25,0.00
2013-4-29,85.7,69.0,56.0,59.4,52.6,45.9,86,59,28,29.74,29.44,21,1,21,0.00
2013-4-30,76.2,69.0,61.4,58.4,50.5,38.8,61,52,44,29.81,29.42,27,6,30,0.00
2013-5-1,61.4,41.7,33.2,42.6,37.1,32.0,96,85,45,30.45,29.79,32,10,35,0.55
2013-5-2,51.2,41.1,33.2,35.5,32.0,29.2,96,72,46,30.59,30.41,27,7,28,0.40
2013-5-3,52.4,42.7,33.4,32.8,29.5,27.3,79,61,40,30.41,30.05,27,6,27,0.00
2013-5-4,44.0,41.0,37.5,40.3,36.8,29.8,92,85,60,30.16,29.99,26,9,28,0.02
2013-5-5,55.9,48.0,42.2,48.4,43.2,39.1,90,84,75,30.19,30.10,16,4,16,0.00
2013-5-6,70.3,56.3,48.2,51.9,48.0,45.0,94,75,48,30.15,30.00,14,1,15,0.00
2013-5-7,73.5,59.8,43.5,58.1,51.5,41.9,96,77,50,30.05,29.89,17,1,17,0.00
2013-5-8,70.0,62.6,56.8,59.6,56.8,53.2,92,82,66,29.92,29.83,16,1,16,0.05
2013-5-9,67.1,60.4,56.7,57.9,56.3,53.8,96,87,66,29.97,29.79,20,3,20,0.06
2013-5-10,70.5,58.6,50.1,53.9,49.1,46.1,92,73,43,30.08,29.96,20,3,20,0.00
2013-5-11,62.0,54.9,41.0,47.2,33.6,21.9,87,49,23,30.24,30.02,31,5,31,0.00
2013-5-12,68.6,52.5,33.9,39.2,32.2,25.7,88,52,24,30.27,30.08,14,1,14,0.00
2013-5-13,84.5,67.0,48.1,56.7,46.8,38.0,77,52,25,30.08,29.79,24,4,25,0.00
2013-5-14,98.8,80.5,57.8,61.5,55.1,47.4,92,48,18,29.80,29.57,32,6,33,0.00
2013-5-15,84.7,74.7,62.8,54.8,48.7,43.2,59,41,27,29.82,29.68,20,3,20,0.00
2013-5-16,83.8,72.7,59.1,64.2,59.2,50.3,91,64,45,29.80,29.67,21,2,21,0.00
2013-5-17,86.3,74.3,60.5,63.0,60.4,57.3,91,65,41,29.82,29.73,18,2,18,0.00
2013-5-18,83.9,73.8,62.6,70.8,64.9,58.6,93,74,59,29.81,29.60,23,3,23,0.51
2013-5-19,77.3,66.6,58.9,69.4,62.1,56.6,96,86,68,29.71,29.41,23,1,23,0.78
2013-5-20,76.8,66.5,58.4,59.7,55.4,49.8,94,70,43,29.61,29.47,24,6,24,0.01
2013-5-21,62.8,59.2,54.3,56.3,50.0,46.3,85,72,60,29.73,29.58,24,7,24,0.00
2013-5-22,61.7,55.9,50.5,51.1,49.2,46.8,90,79,65,29.97,29.72,21,6,21,0.00
2013-5-23,72.7,60.2,52.4,53.8,49.4,46.0,91,70,40,30.18,29.98,15,2,15,0.00
2013-5-24,74.9,63.6,49.1,55.9,51.1,45.3,90,66,48,30.24,29.92,24,4,25,0.00
2013-5-25,82.8,71.0,61.0,70.3,63.1,54.2,96,77,59,30.07,29.85,26,3,27,0.57
2013-5-26,85.3,74.9,68.8,71.6,67.4,64.5,88,78,61,29.89,29.71,24,3,24,0.00
2013-5-27,80.5,69.5,60.5,69.0,63.6,58.7,97,83,59,29.82,29.50,27,4,27,2.75
2013-5-28,81.9,70.9,62.2,66.9,63.4,59.4,96,79,53,29.65,29.55,20,1,20,0.00
2013-5-29,78.5,69.3,62.9,71.9,65.8,60.9,95,89,79,29.62,29.42,24,4,24,1.79
2013-5-30,78.2,65.2,59.6,65.0,59.7,53.2,95,83,61,29.58,29.44,40,2,40,0.41
2013-5-31,78.8,67.8,54.3,57.4,51.7,46.9,92,60,35,29.70,29.57,26,4,26,0.00
2013-6-1,62.7,59.2,56.2,54.0,50.1,47.6,81,72,59,29.81,29.65,28,7,28,0.00
2013-6-2,70.8,65.4,55.2,49.1,46.5,42.5,75,52,38,30.06,29.96,10,0,10,0.00
2013-6-3,75.8,64.0,49.4,56.7,51.6,46.4,90,66,46,30.00,29.74,24,4,25,0.00
2013-6-4,78.2,68.3,61.2,65.2,60.8,55.7,88,77,61,29.93,29.78,15,1,17,0.00
2013-6-5,74.3,64.9,55.5,63.8,53.7,49.4,91,69,45,30.00,29.91,20,3,20,0.21
2013-6-6,73.3,63.2,53.4,56.4,51.5,49.0,89,68,44,29.97,29.92,18,2,18,0.00
2013-6-7,76.8,64.0,48.7,55.9,50.8,47.1,96,66,36,30.00,29.83,10,0,12,0.00
2013-6-8,74.9,65.6,58.5,67.7,59.2,52.1,94,80,64,29.84,29.58,24,1,24,0.55
2013-6-9,74.8,66.5,60.5,61.2,57.9,55.7,92,75,57,29.81,29.68,28,5,28,0.00
2013-6-10,84.5,70.6,53.6,63.7,58.8,51.6,95,69,45,29.84,29.70,17,1,19,0.00
2013-6-11,91.7,80.0,67.9,69.6,65.7,61.3,89,63,40,29.74,29.57,27,2,27,0.00
2013-6-12,89.1,78.9,64.5,72.0,64.6,54.9,87,63,41,29.98,29.54,25,5,25,0.03
2013-6-13,78.6,66.7,57.5,63.4,57.8,52.8,90,75,41,30.05,29.91,11,0,11,0.23
2013-6-14,92.5,76.6,63.0,75.7,66.0,58.3,88,71,41,29.97,29.64,29,3,29,0.00
2013-6-15,80.7,75.3,68.3,69.7,67.1,60.8,91,76,56,29.89,29.72,20,2,20,0.00
2013-6-16,86.6,75.5,66.4,69.4,65.4,60.5,97,74,46,29.93,29.84,14,0,14,0.00
2013-6-17,88.7,78.1,66.2,64.4,60.3,54.2,84,57,34,29.95,29.86,15,1,15,0.00
2013-6-18,83.2,73.2,61.0,65.4,60.4,56.8,91,66,44,30.01,29.89,12,0,12,0.00
2013-6-19,87.0,75.8,64.2,69.1,63.8,60.9,90,68,45,29.93,29.80,21,2,22,0.00
2013-6-20,90.2,80.3,68.7,74.7,69.6,62.5,87,71,58,29.87,29.70,25,4,25,0.00
2013-6-21,97.3,85.5,77.6,73.7,71.4,65.1,79,64,36,29.75,29.66,26,4,26,0.00
2013-6-22,83.8,78.5,69.4,72.7,66.6,59.8,86,67,52,29.91,29.68,23,2,24,0.00
2013-6-23,81.4,74.6,65.1,71.8,67.5,61.3,93,79,59,29.86,29.66,24,2,26,0.55
2013-6-24,86.3,76.9,71.3,76.5,71.1,67.7,94,83,66,29.86,29.63,31,2,31,0.29
2013-6-25,89.4,80.9,68.1,77.1,71.5,63.7,89,74,60,29.70,29.55,16,3,22,0.05
2013-6-26,94.3,82.6,74.0,74.7,68.3,60.7,95,66,33,29.80,29.58,8,0,13,0.00
2013-6-27,84.9,74.5,68.9,72.0,68.4,66.2,94,82,55,29.94,29.80,28,1,29,0.30
2013-6-28,86.0,77.7,69.0,68.7,62.2,55.1,93,62,36,29.94,29.85,23,3,23,0.00
2013-6-29,81.0,73.2,65.0,60.0,58.0,54.6,78,60,42,29.89,29.84,29,5,30,0.00
2013-6-30,78.0,68.4,59.5,61.8,56.9,51.9,92,69,44,30.07,29.89,17,1,17,0.00
2013-7-1,82.1,69.2,53.9,59.4,54.4,50.6,90,63,36,30.15,30.05,14,1,14,0.00
2013-7-2,83.2,70.2,57.0,63.6,58.1,53.7,94,69,38,30.11,30.00,10,0,10,0.00
2013-7-3,87.3,71.5,57.1,63.5,58.1,51.1,95,67,31,30.02,29.88,11,0,11,0.00
2013-7-4,86.5,74.5,60.3,62.3,57.5,53.8,83,58,33,29.92,29.80,23,2,23,0.00
2013-7-5,89.5,77.5,64.7,67.3,62.4,57.9,80,61,40,29.84,29.73,27,3,27,0.00
2013-7-6,87.4,79.4,72.8,70.5,64.6,58.8,68,61,53,29.78,29.68,21,3,22,0.00
2013-7-7,95.2,83.1,73.3,71.7,67.0,62.2,82,60,40,29.81,29.71,24,2,24,0.03
2013-7-8,90.1,83.0,77.8,75.8,70.7,66.2,77,67,52,29.88,29.78,20,2,20,0.00
2013-7-9,98.7,86.6,76.3,75.0,71.4,65.9,79,62,42,29.86,29.74,24,2,25,0.00
2013-7-10,85.5,79.0,70.4,71.9,67.2,63.5,86,68,51,30.00,29.86,12,1,13,0.00
2013-7-11,87.1,76.8,66.3,65.4,63.1,59.8,91,65,45,30.06,29.87,18,2,19,0.00
2013-7-12,93.9,81.3,69.4,74.2,67.3,60.0,74,63,50,29.92,29.79,22,3,22,0.00
2013-7-13,94.5,82.8,75.9,75.3,71.2,67.8,77,69,46,29.87,29.79,19,3,21,0.00
2013-7-14,87.3,78.8,71.6,69.0,64.1,56.8,81,62,37,30.06,29.85,17,2,19,0.00
2013-7-15,88.0,77.4,61.6,70.2,64.9,59.1,93,67,47,30.12,30.02,16,1,19,0.00
2013-7-16,90.5,79.7,68.0,68.5,66.2,62.6,90,66,45,30.18,30.09,16,1,16,0.00
2013-7-17,92.5,81.6,69.9,70.5,68.5,66.8,91,67,46,30.23,30.07,16,1,16,0.00
2013-7-18,93.0,82.8,71.9,71.5,68.6,66.4,86,64,44,30.08,29.84,26,3,26,0.00
2013-7-19,93.5,83.4,74.2,72.2,67.3,58.5,76,60,37,29.87,29.78,16,1,16,0.00
2013-7-20,87.2,78.1,66.8,68.3,64.9,55.8,87,66,37,29.90,29.77,12,1,13,0.00
2013-7-21,91.2,79.6,68.3,71.8,69.0,65.5,92,72,49,29.84,29.68,15,2,15,0.00
2013-7-22,96.0,82.6,68.4,77.0,70.1,64.0,94,69,39,29.76,29.66,17,1,17,0.00
2013-7-23,80.9,74.0,65.7,69.0,64.9,62.1,92,74,61,29.94,29.75,28,2,30,0.45
2013-7-24,86.0,73.5,60.6,66.4,63.5,58.9,95,73,48,30.03,29.92,11,0,11,0.00
2013-7-25,78.3,72.7,67.2,69.3,66.2,62.9,92,80,66,29.98,29.92,15,1,17,0.00
2013-7-26,78.6,71.2,60.9,68.5,60.0,50.3,95,70,39,30.07,29.91,19,3,21,0.00
2013-7-27,75.0,65.1,55.8,54.0,50.8,45.6,92,63,39,30.10,29.96,16,1,16,0.00
2013-7-28,79.5,65.6,50.2,58.9,52.7,48.3,94,67,37,30.03,29.95,10,0,11,0.00
2013-7-29,65.9,63.9,60.4,64.7,61.0,57.3,96,91,76,30.00,29.94,14,1,14,0.67
2013-7-30,78.2,70.8,65.4,70.2,66.6,64.5,98,87,71,30.06,29.97,10,0,10,0.00
2013-7-31,87.1,75.2,63.8,70.6,66.8,62.6,97,77,54,30.09,29.98,11,0,11,0.00
2013-8-1,88.3,74.7,62.7,72.5,65.9,61.2,96,77,44,30.03,29.82,29,2,29,1.27
2013-8-2,82.7,75.1,67.2,70.5,67.4,64.3,93,78,61,29.94,29.72,27,2,27,0.14
2013-8-3,78.7,71.1,64.3,66.0,62.0,59.8,86,74,57,30.11,29.94,13,1,13,0.00
2013-8-4,77.5,70.2,64.3,69.9,63.5,57.5,89,79,71,30.11,29.95,18,1,18,0.00
2013-8-5,86.9,77.3,70.1,75.4,71.8,67.5,94,84,66,29.97,29.75,14,0,19,0.00
2013-8-6,89.7,79.0,69.6,77.3,72.5,66.5,97,82,62,29.84,29.71,16,1,16,0.00
2013-8-7,84.1,75.9,68.9,73.2,65.0,59.6,91,71,45,29.92,29.75,12,1,16,0.00
2013-8-8,79.4,72.2,66.6,67.6,64.6,62.3,91,78,61,29.96,29.88,6,0,6,0.00
2013-8-9,81.4,73.3,64.4,69.3,65.3,59.7,95,78,50,30.09,29.95,12,0,12,0.00
2013-8-10,83.3,71.6,57.9,67.9,63.1,56.4,96,76,57,30.14,30.01,12,1,13,0.00
2013-8-11,86.3,75.6,64.3,70.5,66.5,61.2,91,75,56,30.06,29.92,19,2,19,0.00
2013-8-12,84.6,75.4,66.1,72.2,67.4,63.1,95,78,51,30.00,29.92,12,1,12,0.25
2013-8-13,78.5,71.2,62.4,64.0,60.5,55.6,93,71,48,30.10,30.00,12,0,12,0.00
2013-8-14,75.1,66.8,57.1,65.0,60.5,55.4,95,81,62,30.13,30.00,13,0,13,0.01
2013-8-15,70.4,66.4,62.5,65.4,62.7,60.4,95,88,78,30.04,29.94,13,1,14,0.22
2013-8-16,73.7,67.7,63.0,63.4,60.6,59.4,89,79,65,30.11,30.03,17,1,17,0.00
2013-8-17,78.4,69.9,61.6,62.0,59.9,57.9,91,72,53,30.14,30.05,17,1,17,0.00
2013-8-18,80.7,69.1,54.8,65.3,60.1,52.8,94,75,54,30.10,29.98,20,1,20,0.00
2013-8-19,86.2,75.5,65.6,70.9,66.8,62.1,90,75,58,30.02,29.84,20,2,20,0.00
2013-8-20,89.1,79.0,70.5,72.6,69.4,66.3,87,73,55,29.89,29.82,23,3,25,0.00
2013-8-21,91.5,80.4,70.6,74.4,70.1,66.5,87,72,55,29.92,29.83,18,2,18,0.00
2013-8-22,86.5,77.6,70.0,72.2,69.2,66.2,89,76,58,30.00,29.88,23,1,23,0.00
2013-8-23,89.5,79.9,71.6,73.8,70.4,68.7,93,74,52,29.99,29.87,19,2,19,0.00
2013-8-24,92.5,83.2,75.8,75.3,71.5,68.3,83,69,53,29.96,29.89,18,3,25,0.00
2013-8-25,94.6,84.0,74.6,75.8,72.1,69.8,86,69,49,30.02,29.93,21,4,23,0.00
2013-8-26,95.3,84.7,75.1,74.0,71.3,69.5,84,66,48,29.98,29.85,24,4,24,0.00
2013-8-27,95.8,84.5,74.7,72.9,69.0,64.0,78,61,42,29.87,29.80,22,5,22,0.00
2013-8-28,93.8,81.6,69.1,73.2,67.0,63.6,85,63,40,29.91,29.84,13,1,14,0.00
2013-8-29,96.8,83.1,70.3,76.3,71.6,68.0,94,71,43,29.91,29.80,15,1,16,0.00
2013-8-30,99.5,83.6,71.0,79.3,71.3,66.7,88,69,41,29.82,29.73,13,1,14,0.00
2013-8-31,96.0,82.3,73.3,75.4,72.1,68.6,92,74,42,29.82,29.68,16,0,18,0.00
2013-9-1,84.7,76.9,66.2,71.6,63.8,55.9,92,67,40,29.94,29.66,21,3,21,0.11
2013-9-2,81.5,69.6,58.9,61.9,58.5,55.0,94,71,44,30.05,29.94,12,0,12,0.00
2013-9-3,85.5,70.3,53.3,64.2,59.1,51.3,95,71,45,30.05,29.95,15,1,17,0.00
2013-9-4,85.3,72.6,60.5,66.4,62.4,57.6,92,72,43,30.11,29.97,14,1,15,0.00
2013-9-5,86.5,76.2,66.4,68.3,64.2,61.3,84,68,47,30.11,30.00,13,1,14,0.00
2013-9-6,93.3,80.4,69.0,71.2,66.9,62.1,81,65,46,30.01,29.81,19,2,19,0.00
2013-9-7,96.3,81.7,72.6,72.8,69.1,65.6,87,67,42,29.83,29.77,16,2,16,0.00
2013-9-8,95.9,81.5,69.7,75.2,71.5,66.9,96,75,46,29.83,29.68,13,0,13,0.00
2013-9-9,97.7,85.2,74.4,67.2,62.8,57.8,66,49,29,29.75,29.68,25,5,29,0.00
2013-9-10,96.0,81.8,72.3,71.6,64.9,59.5,93,59,35,29.97,29.75,24,4,25,0.95
2013-9-11,80.8,73.4,69.6,73.8,70.2,67.7,96,90,76,30.07,29.93,12,0,12,0.57
2013-9-12,80.1,71.5,59.3,68.7,60.3,51.8,96,71,42,30.16,30.05,14,1,14,0.00
2013-9-13,75.7,63.7,51.2,56.5,53.0,49.6,96,71,44,30.18,30.02,12,0,12,0.00
2013-9-14,76.8,66.2,54.6,60.2,55.3,51.3,91,70,47,30.03,29.81,19,2,19,0.00
2013-9-15,70.5,66.3,63.1,66.0,60.5,55.4,95,82,71,30.17,29.78,21,3,21,0.19
2013-9-16,63.1,60.8,57.5,57.0,55.0,52.8,95,82,73,30.27,30.14,15,1,17,0.05
2013-9-17,78.3,65.1,58.5,70.2,62.5,57.1,99,92,74,30.14,29.81,17,1,20,0.45